TimeCST,TemperatureF,Dew PointF,Humidity,Sea Level PressureIn,VisibilityMPH,Wind Direction,Wind SpeedMPH,Gust SpeedMPH,PrecipitationIn,Events,Conditions,WindDirDegrees,DateUTC
12:56 AM,35.1,27.0,72,30.21,-9999.0,South,10.4,-,N/A,,Unknown,180,2013-01-05 06:56:00
1:56 AM,35.1,28.0,76,30.22,-9999.0,South,10.4,-,N/A,,Unknown,170,2013-01-05 07:56:00
2:56 AM,35.1,28.0,76,30.17,-9999.0,South,9.2,-,N/A,,Unknown,180,2013-01-05 08:56:00
3:56 AM,34.0,28.0,79,30.20,-9999.0,South,9.2,-,N/A,,Unknown,180,2013-01-05 09:56:00
4:56 AM,33.1,28.0,82,30.18,-9999.0,South,10.4,-,N/A,,Unknown,170,2013-01-05 10:56:00
5:56 AM,33.1,28.0,82,30.13,-9999.0,South,10.4,-,N/A,,Unknown,180,2013-01-05 11:56:00
6:56 AM,32.0,28.9,88,30.18,-9999.0,South,8.1,-,N/A,,Unknown,190,2013-01-05 12:56:00
7:56 AM,30.9,28.0,89,30.18,-9999.0,South,5.8,-,N/A,,Unknown,190,2013-01-05 13:56:00
8:56 AM,33.1,28.9,85,30.17,-9999.0,South,6.9,-,N/A,,Unknown,190,2013-01-05 14:56:00
9:56 AM,36.0,28.9,76,30.23,-9999.0,SSW,10.4,-,N/A,,Unknown,210,2013-01-05 15:56:00
10:56 AM,39.0,28.0,65,30.19,-9999.0,SW,12.7,-,N/A,,Unknown,230,2013-01-05 16:56:00
11:56 AM,41.0,28.0,60,30.18,-9999.0,WSW,10.4,-,N/A,,Unknown,240,2013-01-05 17:56:00
12:56 PM,43.0,28.0,56,30.16,-9999.0,West,8.1,-,N/A,,Unknown,280,2013-01-05 18:56:00
1:56 PM,44.1,28.0,53,30.14,-9999.0,West,10.4,-,N/A,,Unknown,270,2013-01-05 19:56:00
2:56 PM,45.0,27.0,49,30.16,-9999.0,WNW,12.7,-,N/A,,Unknown,290,2013-01-05 20:56:00
3:56 PM,41.0,21.9,47,30.20,-9999.0,NW,16.1,-,N/A,,Unknown,310,2013-01-05 21:56:00
4:56 PM,37.9,21.0,51,30.23,-9999.0,NNW,10.4,-,N/A,,Unknown,330,2013-01-05 22:56:00
5:56 PM,33.1,19.9,59,30.27,-9999.0,NNW,6.9,-,N/A,,Unknown,330,2013-01-05 23:56:00
6:56 PM,32.0,21.9,66,30.28,-9999.0,WNW,5.8,-,N/A,,Unknown,300,2013-01-06 00:56:00
7:56 PM,28.9,21.9,75,30.30,-9999.0,NNW,6.9,-,N/A,,Unknown,340,2013-01-06 01:56:00
8:56 PM,30.0,23.0,75,30.30,-9999.0,WNW,5.8,-,N/A,,Unknown,300,2013-01-06 02:56:00
9:56 PM,28.9,23.0,78,30.32,-9999.0,WNW,4.6,-,N/A,,Unknown,290,2013-01-06 03:56:00
10:56 PM,28.9,23.0,78,30.33,-9999.0,WNW,5.8,-,N/A,,Unknown,290,2013-01-06 04:56:00
11:56 PM,30.9,23.0,72,30.35,-9999.0,NNW,6.9,-,N/A,,Unknown,330,2013-01-06 05:56:00